Location: Falkner
(32.6954°N, 86.0502°W)
Time: 12:34:03
(UTC+00:00)

Cosmos 1400 Rocket - Pass Details

Date: 29 October 2020
Orbit: 521 x 568 km, 81.2° (Epoch: 04 December)

Event Time Altitude Azimuth Distance (km) Brightness Sun altitude
Rises 23:25:10 0° 189° (S) 2,751 6.7 -6.9°
Reaches altitude 10° 23:27:21 10° 191° (S) 1,856 5.8 -7.3°
Maximum altitude 23:31:27 79° 278° (W) 578 3.0 -8.2°
Drops below altitude 10° 23:35:33 10° 5° (N) 1,853 5.4 -9.0°
Sets 23:37:43 0° 7° (N) 2,746 6.2 -9.5°
